This demonstration page uses our WeatherBlox Daily Observations layout. Learn more.

Left ArrowRight Arrow

39.92423, -83.80882

Hourly Observations for November 3, 2018

Temp ( °F °C ) Dew Point ( °F °C ) Humidity (%) Winds ( mph kmh ) Pressure ( in mb ) Visibility ( mi km ) Precip ( " mm )
12:56 am 00:56 Cloudy with Light Rain 40 4.4 39 3.9 97 97 W 6 9 29.88 1012 10 16.0934 N/A
1:39 am 01:39 Cloudy 39 4 39 4 100 100 WSW 6 9 29.91 1013 10 16.0934 N/A
1:56 am 01:56 Cloudy 40 4.4 39 3.9 97 97 WSW 6 9 29.89 1012 10 16.0934 N/A
2:26 am 02:26 Cloudy 39 4 39 4 100 100 WSW 5 7 29.91 1013 10 16.0934 N/A
2:56 am 02:56 Cloudy 39 3.9 39 3.9 100 100 WSW 7 11 29.91 1013 10 16.0934 N/A
3:56 am 03:56 Mostly Cloudy 40 4.4 39 3.9 97 97 W 9 15 29.93 1013 10 16.0934 N/A
4:56 am 04:56 Clear 38 3.3 37 2.8 97 97 W 9 15 29.95 1014 10 16.0934 N/A
5:56 am 05:56 Clear 36 2.2 36 2.2 100 100 W 8 13 29.98 1015 10 16.0934 N/A
6:56 am 06:56 Clear 35 1.7 35 1.7 100 100 W 8 13 30.03 1017 10 16.0934 N/A
7:56 am 07:56 Clear 34 1.1 34 1.1 100 100 W 5 7 30.04 1017 10 16.0934 N/A
8:56 am 08:56 Sunny 36 2.2 36 2.2 100 100 W 8 13 30.09 1019 10 16.0934 N/A
9:56 am 09:56 Sunny 40 4.4 38 3.3 93 93 WSW 8 13 30.13 1020 10 16.0934 N/A
10:56 am 10:56 Sunny 44 6.7 39 3.9 83 83 W 7 11 30.15 1021 10 16.0934 N/A
11:56 am 11:56 Sunny 47 8.3 39 3.9 74 74 W 10 17 30.18 1022 10 16.0934 N/A
12:56 pm 12:56 Partly Cloudy 47 8.3 37 2.8 69 69 W 10 17 30.2 1023 10 16.0934 N/A
1:56 pm 13:56 Partly Cloudy 50 10 39 3.9 66 66 W 10 17 30.21 1023 10 16.0934 N/A
2:56 pm 14:56 Mostly Sunny 51 10.6 37 2.8 59 59 WSW 8 13 30.2 1023 10 16.0934 N/A
3:56 pm 15:56 Sunny 52 11.1 39 3.9 61 61 WSW 8 13 30.22 1023 10 16.0934 N/A
4:56 pm 16:56 Sunny 51 10.6 35 1.7 54 54 N N/A 30.22 1023 10 16.0934 N/A
5:56 pm 17:56 Sunny 50 10 37 2.8 61 61 NW 3 6 30.25 1024 10 16.0934 N/A
6:56 pm 18:56 Clear 44 6.7 36 2.2 73 73 ENE 3 6 30.27 1025 10 16.0934 N/A
7:56 pm 19:56 Clear 41 5 37 2.8 86 86 E 3 6 30.29 1026 10 16.0934 0.01 0.254
8:56 pm 20:56 Clear 38 3.3 36 2.2 93 93 E 3 6 30.31 1027 10 16.0934 N/A
9:56 pm 21:56 Clear 37 2.8 35 1.7 93 93 ESE 8 13 30.31 1027 10 16.0934 N/A
10:56 pm 22:56 Clear 39 3.9 35 1.7 86 86 ESE 5 7 30.33 1027 10 16.0934 N/A
11:56 pm 23:56 Clear 40 4.4 35 1.7 83 83 ESE 3 6 30.35 1028 10 16.0934 N/A

Powered by AerisWeather